World > North America > United States > Michigan > North Street  

North Street, MI Hourly Weather Updates

Feedback E-mail the Weather

Quick Clicks

North Street, MI Weather Maps

°F °C°F °C
North Street Weather Map
UTC Time: 5/18/2024, 19:36
Your Time:

North Street, MI Regional Weather

Expires:202405182000;;438119
ASUS43 KDTX 181910
RWRMI 
MICHIGAN HOURLY REGIONAL WEATHER ROUNDUP
NATIONAL WEATHER SERVICE DETROIT/PONTIAC MI
300 PM EDT SAT MAY 18 2024

NOTE: "FAIR" INDICATES FEW OR NO CLOUDS BELOW 12,000 FEET WITH NO
SIGNIFICANT WEATHER AND/OR OBSTRUCTION TO VISIBILITY.


MIZ047>049-052>055-059>063-066>070-074>076-081>083-182000-
SOUTHEAST LOWER MICHIGAN
  
CITY           SKY/WX    TMP DP  RH WIND       PRES   REMARKS
ADRIAN         PTSUNNY   79  54  41 S6        29.91F TC  26           
ALMA           SUNNY     81  42  25 W6        29.88F TC  27           
ANN ARBOR      MOSUNNY   78  60  53 SW5       29.90F TC  26           
BAD AXE        PTSUNNY   73  62  68 SE9       29.91S TC  23           
CARO           MOSUNNY   78  59  52 SE5       29.89F TC  26           
DETROIT CITY   SUNNY     73  62  68 SE6       29.93S TC  23           
DETROIT        MOSUNNY   74  62  66 SE6       29.92F TC  23           
FLINT          SUNNY     81  57  43 CALM      29.89F TC  27           
GROSSE ILE     SUNNY     66  60  80 S10       29.93S TC  19           
HILLSDALE      MOSUNNY   79  38  23 CALM      29.91S TC  26           
HOWELL         MOSUNNY   79  57  46 NW3       29.90F TC  26           

CITY           SKY/WX    TMP DP  RH WIND       PRES   REMARKS
JACKSON        MOSUNNY   81  53  37 CALM      29.89F TC  27           
LAMBERTVILLE   SUNNY     71  61  70 E9        29.92F TC  22           
LANSING        PTSUNNY   82  56  40 VRB3      29.89F TC  28           
LAPEER         SUNNY     76  60  57 SE12      29.91S TC  25           
MASON          MOSUNNY   82  45  27 CALM      29.89F TC  28           
MONROE         MOSUNNY   68  62  80 SE12      29.92F TC  20           
MT. CLEMENS    MOSUNNY   68  61  79 S5        29.90F TC  20           
PONTIAC        MOSUNNY   76  59  55 SE8       29.90F TC  24           
PORT HOPE        N/A     61  57  87 E18       29.91S TC  16           
PORT HURON     SUNNY     72  61  68 S6        29.92S HAZE    TC  22   
TRI CITIES     SUNNY     81  51  35 VRB3      29.89F TC  27           
MIDLAND        SUNNY     83  42  23 W5        29.87S TC  28           
TROY           SUNNY     74  59  57 E7        29.94F TC  24           
SAGINAW HB     SUNNY     79  57  47 VRB2      29.88S TC  26           
$$

SKY/WX - Weather  TMP - Temperature  DP - Dew Point  RH - Humidity
WIND - Wind Direction/Speed PRES - Barometric Pressure VSB - Visibility
WCI - Wind Chill Index E13G22 Wind - East Wind 13 mph/Gusts of 22 mph

Trending Headlines

Trending Entertainment Headlines

North Street Radar Loop

Use the map search tool if you want to place a location marker on the radar map...

North Street Quick Facts

National Two Day Weather Forecast


E-mail the North Street Weather Forecast

Voice your opinion or tell us about page issues...